Location: Brachbach
(49.1847°N, 9.7240°E)
Time: 20:45:19
(UTC+00:00)

Cosmos 2219 Rocket - Pass Details

Date: 22 August 2024
Orbit: 826 x 846 km, 71.0° (Epoch: 09 September)

Event Time Altitude Azimuth Distance (km) Brightness Sun altitude
Exits shadow 00:16:45 18° 282° (WNW) 1,954 4.0 -28.0°
Maximum altitude 00:19:15 24° 318° (NW) 1,682 4.0 -27.9°
Drops below altitude 10° 00:23:50 10° 11° (NNE) 2,481 5.6 -27.7°
Sets 00:26:47 0° 25° (NNE) 3,418 6.6 -27.6°
